KI7LNA Weather Reports


time (UTC)temp
F
wind
direction
speed
knots
gust
knots
rain 1hr
in
rain 24hr
in
rain mn
in
humidity
%
barometer
mb
20260906223401 73 288 2.6 6.1 0.00 0.00 0.00 48 928.2
20260906222901 73 352 5.2 5.2 0.00 0.00 0.00 47 927.9
20260906222401 73 277 7.0 7.8 0.00 0.00 0.00 47 927.9
20260906221903 73 231 3.5 11.3 0.00 0.00 0.00 47 927.9
20260906221401 73 265 7.8 13.0 0.00 0.00 0.00 47 928.5
20260906220902 72 353 0.0 4.3 0.00 0.00 0.00 47 928.2
20260906220401 74 278 1.7 11.3 0.00 0.00 0.00 47 928.5
20260906215900 74 341 5.2 10.4 0.00 0.00 0.00 45 928.2
20260906215401 74 243 5.2 11.3 0.00 0.00 0.00 46 928.5
20260906214901 75 303 7.0 7.8 0.00 0.00 0.00 45 928.5
20260906214401 75 243 6.1 10.4 0.00 0.00 0.00 43 928.2
20260906213901 77 257 4.3 6.1 0.00 0.00 0.00 41 928.5
20260906213401 76 169 3.5 4.3 0.00 0.00 0.00 43 928.5
20260906212901 76 25 2.6 4.3 0.00 0.00 0.00 38 928.9
20260906212402 76 165 1.7 3.5 0.00 0.00 0.00 39 928.9
20260906211902 77 146 1.7 5.2 0.00 0.00 0.00 39 928.9
20260906211401 76 140 2.6 2.6 0.00 0.00 0.00 39 928.9
20260906210901 75 356 1.7 4.3 0.00 0.00 0.00 41 928.9
20260906210402 75 170 3.5 4.3 0.00 0.00 0.00 41 928.9
20260906205902 75 23 5.2 6.1 0.00 0.00 0.00 41 928.9
20260906205401 75 55 9.6 11.3 0.00 0.00 0.00 41 929.2
20260906204902 75 299 2.6 4.3 0.00 0.00 0.00 41 929.2
20260906204401 74 148 1.7 2.6 0.00 0.00 0.00 42 929.2
20260906203902 74 182 3.5 5.2 0.00 0.00 0.00 43 929.6
20260906203400 74 226 0.9 2.6 0.00 0.00 0.00 43 929.6
20260906202902 74 212 0.0 7.8 0.00 0.00 0.00 45 929.2
20260906202401 75 127 6.1 6.1 0.00 0.00 0.00 43 929.6
20260906201903 74 66 1.7 3.5 0.00 0.00 0.00 42 929.6
20260906201401 73 273 1.7 2.6 0.00 0.00 0.00 44 929.6
20260906200901 73 137 0.9 5.2 0.00 0.00 0.00 44 929.6
20260906200401 74 338 2.6 5.2 0.00 0.00 0.00 43 929.6
20260906195901 73 81 0.0 3.5 0.00 0.00 0.00 44 929.6
20260906195401 72 70 1.7 2.6 0.00 0.00 0.00 45 929.6
20260906194901 71 163 0.9 1.7 0.00 0.00 0.00 48 929.6
20260906194402 71 33 0.9 3.5 0.00 0.00 0.00 46 929.6
20260906193901 71 58 2.6 5.2 0.00 0.00 0.00 47 929.9
20260906193401 71 14 1.7 4.3 0.00 0.00 0.00 48 929.9
20260906192901 71 263 2.6 3.5 0.00 0.00 0.00 47 930.2
20260906192403 70 340 1.7 4.3 0.00 0.00 0.00 48 929.9
20260906191901 70 305 2.6 3.5 0.00 0.00 0.00 49 930.2
20260906191401 71 154 2.6 4.3 0.00 0.00 0.00 48 929.9
20260906190902 70 341 1.7 4.3 0.00 0.00 0.00 47 930.2
20260906190401 69 305 1.7 3.5 0.00 0.00 0.00 50 930.6
20260906185901 70 36 2.6 5.2 0.00 0.00 0.00 48 930.6
20260906185409 69 47 0.9 2.6 0.00 0.00 0.00 48 930.6
20260906184902 69 53 0.9 2.6 0.00 0.00 0.00 51 930.6
20260906184401 70 72 2.6 3.5 0.00 0.00 0.00 48 930.6
20260906183901 70 141 1.7 4.3 0.00 0.00 0.00 49 930.6
20260906183401 69 121 2.6 4.3 0.00 0.00 0.00 50 930.9
20260906182902 67 70 0.9 2.6 0.00 0.00 0.00 55 930.9
20260906182401 68 217 1.7 3.5 0.00 0.00 0.00 53 931.3
20260906181901 67 312 3.5 5.2 0.00 0.00 0.00 53 931.3
20260906181401 67 327 2.6 5.2 0.00 0.00 0.00 54 931.3
20260906180901 67 11 1.7 4.3 0.00 0.00 0.00 54 931.3
20260906180402 67 183 0.0 6.1 0.00 0.00 0.00 54 931.3
20260906175901 66 11 3.5 5.2 0.00 0.00 0.00 55 931.3
20260906175403 65 328 3.5 4.3 0.00 0.00 0.00 58 931.3
20260906174901 66 345 0.9 3.5 0.00 0.00 0.00 56 931.6
20260906174401 65 135 0.0 2.6 0.00 0.00 0.00 58 931.6
20260906173901 64 164 1.7 2.6 0.00 0.00 0.00 59 931.6
20260906173401 63 162 1.7 2.6 0.00 0.00 0.00 59 931.9
20260906172901 63 16 3.5 5.2 0.00 0.00 0.00 60 931.6
20260906172401 63 318 4.3 5.2 0.00 0.00 0.00 60 931.9
20260906171901 62 53 0.0 6.1 0.00 0.00 0.00 61 931.9
20260906171401 64 13 3.5 5.2 0.00 0.00 0.00 62 931.9
20260906170901 63 60 0.0 1.7 0.00 0.00 0.00 62 931.9
20260906170401 62 34 0.0 1.7 0.00 0.00 0.00 64 931.9
20260906165901 61 78 0.9 1.7 0.00 0.00 0.00 64 931.9
20260906165401 61 355 1.7 2.6 0.00 0.00 0.00 62 931.9
20260906164902 60 151 0.9 2.6 0.00 0.00 0.00 67 931.9
20260906164401 60 88 0.0 3.5 0.00 0.00 0.00 67 931.9
20260906163901 60 158 0.9 1.7 0.00 0.00 0.00 70 931.9
20260906163401 60 134 2.6 3.5 0.00 0.00 0.00 68 931.9
20260906162908 60 156 3.5 3.5 0.00 0.00 0.00 66 932.3
20260906162401 60 73 0.9 4.3 0.00 0.00 0.00 66 932.3
20260906161901 60 42 0.9 3.5 0.00 0.00 0.00 68 932.3
20260906161401 60 46 4.3 6.1 0.00 0.00 0.00 66 932.3
20260906160901 59 45 2.6 2.6 0.00 0.00 0.00 67 932.6
20260906160401 58 83 1.7 3.5 0.00 0.00 0.00 73 932.6
20260906155901 58 105 1.7 2.6 0.00 0.00 0.00 74 932.6
20260906155401 57 101 2.6 3.5 0.00 0.00 0.00 76 932.6
20260906154901 56 129 0.9 4.3 0.00 0.00 0.00 79 932.6
20260906154401 55 133 2.6 3.5 0.00 0.00 0.00 83 932.6
20260906153902 55 122 2.6 4.3 0.00 0.00 0.00 83 933.0
20260906153401 55 121 1.7 3.5 0.00 0.00 0.00 83 933.0
20260906152902 53 119 0.9 1.7 0.00 0.00 0.00 94 933.0
20260906152401 53 132 2.6 4.3 0.00 0.00 0.00 95 933.0
20260906151901 53 77 1.7 3.5 0.00 0.00 0.00 96 933.0
20260906151401 52 102 0.9 5.2 0.00 0.00 0.00 98 933.0
20260906150901 51 46 2.6 5.2 0.00 0.00 0.00 99 933.0
20260906150402 51 143 3.5 3.5 0.00 0.00 0.00 99 933.0
20260906145901 50 89 0.9 1.7 0.00 0.00 0.00 99 933.3
20260906145401 49 72 2.6 3.5 0.00 0.00 0.00 99 933.3
20260906144901 48 93 3.5 6.1 0.00 0.00 0.00 99 933.3
20260906144401 48 26 4.3 7.8 0.00 0.00 0.00 99 933.3
20260906143901 47 64 0.9 3.5 0.00 0.00 0.00 99 933.3
20260906143403 47 268 0.0 2.6 0.00 0.00 0.00 99 933.3
20260906142902 47 33 0.0 3.5 0.00 0.00 0.00 99 933.6
20260906142402 47 341 0.9 3.5 0.00 0.00 0.00 99 933.3
20260906141902 46 54 1.7 2.6 0.00 0.00 0.00 99 933.6
20260906141401 46 39 2.6 3.5 0.00 0.00 0.00 99 933.3
20260906140902 46 108 0.9 2.6 0.00 0.00 0.00 99 933.3
20260906140401 46 140 2.6 2.6 0.00 0.00 0.00 99 933.3
20260906135901 46 122 2.6 3.5 0.00 0.00 0.00 99 933.3
20260906135400 46 77 2.6 3.5 0.00 0.00 0.00 99 933.3
20260906134901 46 129 0.9 4.3 0.00 0.00 0.00 99 933.3
20260906134401 46 28 0.9 3.5 0.00 0.00 0.00 99 933.3
20260906133902 46 96 1.7 3.5 0.00 0.00 0.00 98 933.3
20260906133401 46 332 2.6 3.5 0.00 0.00 0.00 98 933.0
20260906132901 46 38 1.7 3.5 0.00 0.00 0.00 99 933.3
20260906132401 46 119 1.7 4.3 0.00 0.00 0.00 99 933.0
20260906131901 47 53 4.3 4.3 0.00 0.00 0.00 99 933.0
20260906131401 47 69 2.6 4.3 0.00 0.00 0.00 99 933.0
20260906130902 47 211 3.5 4.3 0.00 0.00 0.00 99 933.0
20260906130402 46 47 3.5 4.3 0.00 0.00 0.00 98 933.0
20260906125903 46 80 4.3 5.2 0.00 0.00 0.00 98 933.0
20260906125401 46 117 3.5 4.3 0.00 0.00 0.00 98 933.3
20260906124901 46 55 4.3 4.3 0.00 0.00 0.00 98 933.0
20260906124400 46 2 1.7 4.3 0.00 0.00 0.00 98 933.0
20260906123901 46 100 2.6 2.6 0.00 0.00 0.00 98 933.0
20260906123401 46 2 2.6 4.3 0.00 0.00 0.00 98 933.0
20260906122901 46 54 1.7 4.3 0.00 0.00 0.00 98 933.0
20260906122401 46 10 0.0 3.5 0.00 0.00 0.00 98 933.0
20260906121901 46 152 2.6 4.3 0.00 0.00 0.00 98 933.3
20260906121401 46 46 4.3 4.3 0.00 0.00 0.00 98 933.0
20260906120901 46 33 3.5 5.2 0.00 0.00 0.00 98 933.0
20260906120401 46 339 3.5 3.5 0.00 0.00 0.00 98 933.3
20260906115901 47 71 2.6 4.3 0.00 0.00 0.00 98 933.0
20260906115429 47 120 5.2 5.2 0.00 0.00 0.00 98 933.0
20260906114901 46 298 0.9 3.5 0.00 0.00 0.00 98 933.3
20260906114401 47 96 2.6 6.1 0.00 0.00 0.00 97 933.3
20260906113901 47 1 2.6 4.3 0.00 0.00 0.00 97 933.3
20260906113401 47 54 1.7 4.3 0.00 0.00 0.00 97 933.6
20260906112901 47 213 2.6 3.5 0.00 0.00 0.00 97 933.3
20260906112401 47 132 4.3 5.2 0.00 0.00 0.00 97 933.3
20260906111901 47 139 2.6 4.3 0.00 0.00 0.00 97 933.3
20260906111401 47 9 6.1 6.1 0.00 0.00 0.00 97 933.3
20260906110901 47 80 2.6 6.1 0.00 0.00 0.00 97 933.6
20260906110401 47 98 3.5 4.3 0.00 0.00 0.00 97 933.3
20260906105901 47 114 1.7 3.5 0.00 0.00 0.00 97 933.6
20260906105402 47 105 1.7 2.6 0.00 0.00 0.00 97 933.6
20260906104901 47 133 2.6 2.6 0.00 0.00 0.00 97 933.3
20260906104401 47 13 1.7 2.6 0.00 0.00 0.00 96 933.3
20260906103901 47 14 5.2 6.1 0.00 0.00 0.00 96 933.6
20260906103401 47 109 2.6 4.3 0.00 0.00 0.00 96 933.6
20260906102900 47 135 3.5 3.5 0.00 0.00 0.00 97 933.6
20260906102401 47 62 0.0 1.7 0.00 0.00 0.00 96 933.6
20260906101901 47 7 3.5 4.3 0.00 0.00 0.00 96 933.3
20260906101401 47 88 0.0 3.5 0.00 0.00 0.00 96 933.6
20260906100901 47 70 2.6 4.3 0.00 0.00 0.00 96 933.6
20260906100401 46 94 1.7 2.6 0.00 0.00 0.00 96 933.6
20260906095901 46 121 2.6 2.6 0.00 0.00 0.00 95 933.6
20260906095401 46 8 3.5 5.2 0.00 0.00 0.00 95 933.3
20260906094901 47 34 4.3 4.3 0.00 0.00 0.00 95 933.6
20260906094401 47 96 1.7 3.5 0.00 0.00 0.00 95 934.0
20260906093900 47 89 2.6 3.5 0.00 0.00 0.00 95 933.6
20260906093401 47 121 0.9 1.7 0.00 0.00 0.00 95 933.6
20260906092900 47 139 1.7 1.7 0.00 0.00 0.00 96 933.3
20260906092401 47 66 1.7 2.6 0.00 0.00 0.00 95 933.6
20260906091901 47 54 0.9 1.7 0.00 0.00 0.00 96 933.6
20260906091401 47 41 2.6 2.6 0.00 0.00 0.00 95 933.6
20260906090901 47 70 0.0 2.6 0.00 0.00 0.00 94 933.3
20260906090401 47 39 3.5 3.5 0.00 0.00 0.00 94 933.6
20260906085901 47 57 3.5 3.5 0.00 0.00 0.00 94 933.6
20260906085401 47 113 2.6 3.5 0.00 0.00 0.00 94 933.6
20260906084901 47 128 2.6 2.6 0.00 0.00 0.00 94 933.3
20260906084401 47 64 1.7 2.6 0.00 0.00 0.00 94 933.3
20260906083901 47 36 3.5 3.5 0.00 0.00 0.00 94 933.3
20260906083402 47 137 2.6 2.6 0.00 0.00 0.00 93 933.3
20260906082901 47 144 2.6 2.6 0.00 0.00 0.00 94 933.6
20260906082401 47 105 0.0 3.5 0.00 0.00 0.00 94 933.6
20260906081901 47 41 5.2 5.2 0.00 0.00 0.00 93 934.0
20260906081400 47 127 2.6 3.5 0.00 0.00 0.00 93 934.0
20260906080901 47 151 2.6 3.5 0.00 0.00 0.00 94 933.6
20260906080401 47 109 1.7 2.6 0.00 0.00 0.00 95 933.6
20260906075901 47 32 0.0 1.7 0.00 0.00 0.00 94 934.0
20260906075401 47 55 2.6 3.5 0.00 0.00 0.00 94 934.0
20260906074901 46 42 3.5 4.3 0.00 0.00 0.00 93 934.0
20260906074402 47 130 2.6 3.5 0.00 0.00 0.00 94 934.0
20260906073902 47 98 0.0 0.9 0.00 0.00 0.00 93 934.0
20260906073401 47 124 0.0 0.9 0.00 0.00 0.00 93 934.0
20260906072901 47 62 1.7 2.6 0.00 0.00 0.00 93 934.3
20260906072401 47 129 1.7 1.7 0.00 0.00 0.00 93 934.3
20260906071901 47 51 0.0 1.7 0.00 0.00 0.00 93 934.3
20260906071401 47 83 0.0 1.7 0.00 0.00 0.00 92 934.3
20260906070901 47 52 1.7 2.6 0.00 0.00 0.00 92 934.6
20260906070401 47 57 1.7 2.6 0.00 0.00 0.00 92 934.3
20260906065901 47 72 0.0 2.6 0.00 0.00 0.00 91 934.6
20260906065401 48 133 2.6 3.5 0.00 0.00 0.00 91 934.3
20260906064901 48 140 2.6 2.6 0.00 0.00 0.00 91 934.3
20260906064400 48 34 0.0 0.0 0.00 0.00 0.00 91 934.6
20260906063901 48 83 0.9 2.6 0.00 0.00 0.00 91 934.6
20260906063401 48 63 1.7 1.7 0.00 0.00 0.00 91 934.6
20260906062901 48 66 2.6 3.5 0.00 0.00 0.00 90 934.3
20260906062402 48 65 1.7 2.6 0.00 0.00 0.00 91 934.3
20260906061901 48 58 1.7 2.6 0.00 0.00 0.00 90 934.3
20260906061401 49 86 2.6 2.6 0.00 0.00 0.00 89 934.6
20260906060901 49 119 0.0 1.7 0.00 0.00 0.00 89 934.3
20260906060401 49 110 0.9 2.6 0.00 0.00 0.00 88 934.6
20260906055901 49 117 0.0 0.9 0.00 0.00 0.00 89 934.3
20260906055401 50 87 1.7 1.7 0.00 0.00 0.00 88 934.6
20260906054901 50 72 1.7 3.5 0.00 0.00 0.00 88 934.6
20260906054402 50 42 3.5 3.5 0.00 0.00 0.00 87 935.0
20260906053900 50 127 1.7 2.6 0.00 0.00 0.00 86 934.6
20260906053401 50 49 0.0 0.0 0.00 0.00 0.00 85 934.6
20260906052901 50 49 0.0 2.6 0.00 0.00 0.00 85 935.0
20260906052401 50 41 2.6 3.5 0.00 0.00 0.00 85 935.0
20260906051901 50 47 0.9 2.6 0.00 0.00 0.00 84 934.6
20260906051401 50 28 2.6 2.6 0.00 0.00 0.00 84 934.6
20260906050900 51 73 0.9 1.7 0.00 0.00 0.00 84 935.0
20260906050403 51 64 2.6 2.6 0.00 0.00 0.00 84 935.0
20260906045901 51 69 1.7 2.6 0.00 0.00 0.00 81 935.0
20260906045401 51 137 1.7 2.6 0.00 0.00 0.00 82 934.6
20260906044901 52 137 1.7 2.6 0.00 0.00 0.00 83 935.0
20260906044401 52 102 0.9 0.9 0.00 0.00 0.00 82 935.0
20260906043901 52 97 0.0 1.7 0.00 0.00 0.00 82 935.0
20260906043401 53 68 1.7 2.6 0.00 0.00 0.00 80 935.0
20260906042901 53 30 2.6 5.2 0.00 0.00 0.00 80 934.6
20260906042403 53 55 0.0 1.7 0.00 0.00 0.00 81 935.0
20260906041902 53 74 2.6 2.6 0.00 0.00 0.00 79 934.6
20260906041403 53 89 1.7 1.7 0.00 0.00 0.00 79 934.6
20260906040901 54 56 1.7 2.6 0.00 0.00 0.00 78 934.3
20260906040401 55 87 1.7 1.7 0.00 0.00 0.00 77 934.6
20260906035901 55 131 0.0 1.7 0.00 0.00 0.00 75 934.6
20260906035401 55 315 0.0 1.7 0.00 0.00 0.00 74 934.6
20260906034901 56 47 0.9 1.7 0.00 0.00 0.00 73 934.6
20260906034401 57 69 0.0 1.7 0.00 0.00 0.00 72 934.6
20260906033902 56 306 1.7 2.6 0.00 0.00 0.00 71 934.6
20260906033401 57 30 3.5 3.5 0.00 0.00 0.00 72 934.6
20260906032901 58 15 0.9 2.6 0.00 0.00 0.00 71 934.3
20260906032401 58 307 0.9 2.6 0.00 0.00 0.00 72 934.3
20260906031901 57 350 0.9 2.6 0.00 0.00 0.00 72 934.3
20260906031401 58 18 2.6 2.6 0.00 0.00 0.00 68 934.3
20260906030901 58 46 2.6 2.6 0.00 0.00 0.00 67 934.3
20260906030401 59 48 0.9 1.7 0.00 0.00 0.00 66 934.0
20260906025901 59 86 0.9 2.6 0.00 0.00 0.00 65 934.0
20260906025401 60 56 1.7 2.6 0.00 0.00 0.00 65 934.0
20260906024902 60 81 2.6 2.6 0.00 0.00 0.00 64 934.0
20260906024401 61 85 1.7 2.6 0.00 0.00 0.00 61 933.6
20260906023901 62 48 1.7 2.6 0.00 0.00 0.00 59 933.6
20260906023401 63 37 0.0 0.0 0.00 0.00 0.00 56 933.6
20260906022901 63 322 1.7 2.6 0.00 0.00 0.00 56 933.6
20260906022401 62 14 1.7 3.5 0.00 0.00 0.00 56 933.6
20260906021902 63 43 2.6 2.6 0.00 0.00 0.00 56 933.6
20260906021401 63 27 2.6 3.5 0.00 0.00 0.00 55 933.6
20260906020901 64 355 2.6 4.3 0.00 0.00 0.00 54 933.6
20260906020402 64 27 4.3 4.3 0.00 0.00 0.00 52 933.6
20260906015901 65 360 2.6 4.3 0.00 0.00 0.00 51 933.6
20260906015401 65 359 2.6 5.2 0.00 0.00 0.00 50 933.6
20260906014904 66 238 0.9 6.1 0.00 0.00 0.00 49 933.6
20260906014401 66 303 5.2 5.2 0.00 0.00 0.00 48 933.6
20260906013901 66 302 0.0 5.2 0.00 0.00 0.00 47 933.3
20260906013401 67 215 1.7 3.5 0.00 0.00 0.00 46 933.3
20260906012903 68 265 2.6 4.3 0.00 0.00 0.00 45 933.0
20260906012401 69 326 1.7 6.1 0.00 0.00 0.00 45 933.0
20260906011901 70 302 1.7 4.3 0.00 0.00 0.00 43 933.0
20260906011401 69 355 2.6 3.5 0.00 0.00 0.00 42 933.0
20260906010901 69 82 0.9 2.6 0.00 0.00 0.00 42 933.0
20260906010401 69 292 3.5 6.1 0.00 0.00 0.00 42 933.0
20260906005901 70 295 5.2 9.6 0.00 0.00 0.00 41 933.0
20260906005401 69 264 0.0 7.8 0.00 0.00 0.00 41 933.0
20260906004901 69 302 4.3 9.6 0.00 0.00 0.00 41 933.0
20260906004401 70 304 4.3 10.4 0.00 0.00 0.00 41 933.0
20260906003901 70 343 4.3 7.0 0.00 0.00 0.00 41 933.0
20260906003401 70 310 3.5 6.1 0.00 0.00 0.00 40 933.0
20260906002901 70 230 0.0 3.5 0.00 0.00 0.00 40 933.0
20260906002401 70 328 3.5 6.1 0.00 0.00 0.00 41 933.0
20260906001901 69 298 5.2 9.6 0.00 0.00 0.00 41 932.6
20260906001401 69 298 6.1 8.7 0.00 0.00 0.00 41 933.0
20260906000901 69 296 5.2 7.8 0.00 0.00 0.00 41 933.0
20260906000403 69 272 8.7 9.6 0.00 0.00 0.00 41 933.0
20260905235901 69 283 4.3 9.6 0.00 0.00 0.00 41 933.3
20260905235401 70 306 6.1 8.7 0.00 0.00 0.00 41 933.0
20260905234901 70 323 6.1 9.6 0.00 0.00 0.00 40 933.0
20260905234401 71 305 6.1 11.3 0.00 0.00 0.00 40 933.3
20260905233901 70 300 1.7 2.6 0.00 0.00 0.00 41 933.0
20260905233401 70 238 2.6 8.7 0.00 0.00 0.00 41 933.0
20260905232901 70 180 1.7 8.7 0.00 0.00 0.00 41 933.0
20260905232401 71 245 1.7 7.8 0.00 0.00 0.00 40 933.0
20260905231901 71 118 0.9 7.0 0.00 0.00 0.00 41 933.0
20260905231401 71 326 3.5 10.4 0.00 0.00 0.00 41 933.0
20260905230901 72 303 5.2 6.1 0.00 0.00 0.00 40 933.3
20260905230401 71 274 0.9 3.5 0.00 0.00 0.00 41 933.0
20260905225901 70 213 1.7 4.3 0.00 0.00 0.00 41 933.0
20260905225401 70 252 0.9 5.2 0.00 0.00 0.00 43 933.3
20260905224901 69 272 2.6 7.8 0.00 0.00 0.00 44 933.3
20260905224401 68 318 1.7 5.2 0.00 0.00 0.00 47 933.3
20260905223901 68 276 4.3 6.1 0.00 0.00 0.00 48 933.3